Location: Poughquag
(41.6090°N, 73.6820°W)
Time: 02:14:13
(UTC-04:00)

Vanguard 2 Rocket - Pass Details

Date: 01 June 2020
Orbit: 556 x 3324 km, 32.9° (Epoch: 06 July)

Event Time Altitude Azimuth Distance (km) Brightness Sun altitude
Rises 19:03:56 0° 269° (W) 4,670 12.0 12.6°
Reaches altitude 10° 19:06:38 10° 264° (W) 3,992 11.6 12.1°
Maximum altitude 19:17:30 51° 193° (SSW) 2,906 9.6 10.2°
Drops below altitude 10° 19:34:43 10° 126° (SE) 6,114 10.5 7.2°
Sets 19:40:04 0° 122° (ESE) 7,271 10.8 6.3°
